Content
SEND FEEDBACK

Daily
Averages
Monthly
Summary
United States of America

WILMINGTON, NORTH CAROLINA


Home > North America > United States > North Carolina
Elevation: 21 meters     Latitude: 34 16N     Longitude: 077 54W

WEATHER
 
SELECT A DAY
Number of Records: 212,380;   Date Range: 1/1/95 - 10/24/14
 
SHARE

PRINT THIS DATA

[ ← Previous Day ]
WEATHER ALMANAC - 9 JANUARY, 2013
[ Next Day → ]
[ °F ]   °C
Weather ElementAverageHighLow
Temperature14.8 °C21.1 °C (1:53 pm)6.1 °C (1:53 am)
Dewpoint10.7 °C12.8 °C (2:53 pm)5 °C (1:53 am)
Humidity77.6 %93 % (1:53 am)56 % (1:04 pm)
Barometer1028.8 hPa1030.1 hPa (9:53 am)1027.8 hPa (3:53 am)
Wind Speed4 km/h11.1 km/h (11:51 am)
Weather ElementAverage
Visibility15.8 km
Wind DirectionNE (41.2 °)

Weather ElementTotal
Precipitation---
Heating Degree Days4.7 (Base 18.3)
Growing Degree Days3.6 (Base 10)
Averaged from 25 records on 9 January, 2013
WEATHER CONDITIONS BREAKOUT
WIND DIRECTION BREAKOUT
WEATHER BY HOUR - 9 JANUARY, 2013
[ °F ]   °C
Local TimeTemperatureDewpointHumidityBarometerVisibilityWind DirectionWind SpeedGust SpeedPrecipitationEventsConditions
1:53 AM6.1 °C5 °C93 %1028.1 hPa12.9 kmCalmClear
2:53 AM7.2 °C6.1 °C93 %1028.1 hPa12.9 kmCalmScattered Clouds
3:53 AM8.3 °C6.7 °C90 %1027.8 hPa16.1 kmCalmOvercast
4:53 AM8.9 °C7.2 °C89 %1028.1 hPa16.1 kmCalmOvercast
5:53 AM9.4 °C8.3 °C93 %1028.1 hPa16.1 kmNNE (20°)5.6 km/hOvercast
6:53 AM10 °C8.9 °C93 %1029.1 hPa16.1 kmCalmOvercast
7:53 AM11.1 °C9.4 °C89 %1029.8 hPa16.1 kmCalmOvercast
8:53 AM12.8 °C10.6 °C86 %1029.8 hPa16.1 kmCalmOvercast
9:53 AM15.6 °C11.1 °C75 %1030.1 hPa16.1 kmENE (60°)5.6 km/hOvercast
10:53 AM17.2 °C11.7 °C70 %1029.5 hPa16.1 kmNNE (30°)5.6 km/hOvercast
11:51 AM20 °C12 °C60 %1028.4 hPa16.1 kmEast (90°)11.1 km/hMostly Cloudy
11:53 AM20 °C11.7 °C59 %1028.8 hPa16.1 kmEast (80°)11.1 km/hMostly Cloudy
12:53 PM20.6 °C12.2 °C58 %1028.1 hPa16.1 kmEast (90°)11.1 km/hMostly Cloudy
1:04 PM21 °C12 °C56 %1028.1 hPa16.1 kmENE (60°)9.3 km/hOvercast
1:53 PM21.1 °C12.2 °C57 %1027.8 hPa16.1 kmEast (100°)11.1 km/hMostly Cloudy
2:53 PM21.1 °C12.8 °C59 %1028.1 hPa16.1 kmESE (120°)11.1 km/hScattered Clouds
3:53 PM19.4 °C12.2 °C63 %1028.4 hPa16.1 kmESE (120°)7.4 km/hClear
4:53 PM18.3 °C12.8 °C70 %1028.8 hPa16.1 kmESE (120°)5.6 km/hClear
5:53 PM16.7 °C12.2 °C75 %1028.8 hPa16.1 kmSE (140°)5.6 km/hClear
6:53 PM16.1 °C11.7 °C75 %1029.1 hPa16.1 kmCalmClear
7:53 PM15 °C11.7 °C81 %1028.8 hPa16.1 kmCalmOvercast
8:53 PM14 °C12 °C88 %1029.1 hPa16.1 kmCalmClear
9:53 PM14.4 °C12.2 °C87 %1028.8 hPa16.1 kmCalmClear
10:53 PM13.3 °C11.7 °C90 %1029.1 hPa16.1 kmCalmClear
11:53 PM13.3 °C11.7 °C90 %1029.8 hPa16.1 kmCalmClear
Hourly data recorded from KILM, located 0 kilometers away from Wilmington, North Carolina







STORIES FROM OUR PARTNERS